Location: Buckland
(65.9785°N, 161.1281°W)
Time: 20:18:49
(UTC+00:00)

SPROUT - Pass Details

Date: 26 January 2021
Orbit: 597 x 610 km, 97.9° (Epoch: 07 March)

Event Time Altitude Azimuth Distance (km) Brightness Sun altitude
Exits shadow 03:52:30 - 21° (NNE) 2,405 ? -10.7°
Reaches altitude 10° 03:54:10 10° 6° (N) 1,982 ? -10.8°
Maximum altitude 03:56:16 14° 336° (NNW) 1,755 ? -11.0°
Drops below altitude 10° 03:58:23 10° 307° (NW) 1,981 ? -11.2°
Sets 04:01:33 0° 281° (W) 2,885 ? -11.5°
